Zurück zum Katalog

STARLINK-34968

AktivKommunikationSSO
NORAD 65276·PAYLOAD·🇺🇸 United States

Gestartet Aug 22, 2025 von Vandenberg Space Force Base

Loading…

Nächste Überflüge (nächste 24 Stunden)

TLE

AktuellSource: CelesTrak SupGP

Epoche: Sep 15, 2026, 03:23 UTC

1 65276C 25184D   26258.14145833  .00005963  00000+0  18511-3 0  2587
2 65276  97.2836 306.2417 0001018  85.8865  28.9164 15.33437605    14

Verfolge STARLINK-34968 in Echtzeit mit AllMySat

Download on the App Store